| time (UTC) | temp C | wind direction | speed KPH | gust KPH | rain 1hr cm | rain 24hr cm | rain mn cm | humidity % | barometer mb |
| 20260507143105 | 13 | 348 | 4.8 | 14.5 | 0.00 | 0.03 | 0.00 | 40 | 1006.8 |
| 20260507141550 | 13 | 329 | 3.2 | 8.0 | 0.00 | 0.03 | 0.00 | 30 | 1006.9 |
| 20260507140047 | 13 | 296 | 3.2 | 12.9 | 0.00 | 0.03 | 0.00 | 1 | 1007.0 |
| 20260507134542 | 12 | 267 | 1.6 | 16.1 | 0.00 | 0.03 | 0.00 | 1 | 1007.0 |
| 20260507133039 | 12 | 318 | 4.8 | 12.9 | 0.00 | 0.03 | 0.00 | 1 | 1007.1 |
| 20260507131538 | 11 | 278 | 1.6 | 6.4 | 0.00 | 0.03 | 0.00 | 1 | 1007.1 |
| 20260507130037 | 10 | 355 | 4.8 | 12.9 | 0.00 | 0.03 | 0.00 | 1 | 1007.1 |
| 20260507124534 | 10 | 309 | 1.6 | 6.4 | 0.00 | 0.03 | 0.00 | 1 | 1007.2 |
| 20260507123021 | 10 | 338 | 0.0 | 4.8 | 0.00 | 0.03 | 0.00 | 1 | 1007.2 |
| 20260507121516 | 10 | 334 | 0.0 | 1.6 | 0.00 | 0.03 | 0.00 | 1 | 1007.5 |
| 20260507120011 | 9 | 334 | 0.0 | 3.2 | 0.00 | 0.03 | 0.00 | 1 | 1007.3 |
| 20260507114506 | 9 | 334 | 0.0 | 1.6 | 0.00 | 0.03 | 0.00 | 1 | 1007.0 |
| 20260507113007 | 9 | 334 | 0.0 | 1.6 | 0.00 | 0.03 | 0.00 | 1 | 1006.7 |
| 20260507111559 | 8 | 334 | 0.0 | 3.2 | 0.00 | 0.03 | 0.00 | 1 | 1007.2 |
| 20260507110055 | 8 | 336 | 0.0 | 3.2 | 0.00 | 0.03 | 0.00 | 1 | 1006.8 |
| 20260507104550 | 8 | 331 | 0.0 | 3.2 | 0.00 | 0.03 | 0.00 | 1 | 1006.5 |
| 20260507103052 | 8 | 355 | 1.6 | 6.4 | 0.00 | 0.03 | 0.00 | 1 | 1006.3 |
| 20260507101545 | 9 | 355 | 1.6 | 4.8 | 0.00 | 0.03 | 0.00 | 1 | 1006.6 |
| 20260507100037 | 9 | 360 | 1.6 | 8.0 | 0.00 | 0.03 | 0.00 | 1 | 1006.8 |
| 20260507094534 | 9 | 300 | 1.6 | 8.0 | 0.00 | 0.03 | 0.00 | 1 | 1006.4 |
| 20260507093033 | 9 | 360 | 1.6 | 6.4 | 0.00 | 0.03 | 0.00 | 1 | 1006.2 |
| 20260507091524 | 9 | 307 | 1.6 | 6.4 | 0.00 | 0.03 | 0.00 | 1 | 1006.1 |
| 20260507090019 | 9 | 288 | 0.0 | 3.2 | 0.00 | 0.03 | 0.00 | 1 | 1006.4 |
| 20260507084514 | 10 | 300 | 1.6 | 6.4 | 0.00 | 0.03 | 0.00 | 1 | 1005.8 |
| 20260507083011 | 10 | 324 | 1.6 | 9.7 | 0.00 | 0.03 | 0.00 | 1 | 1005.9 |
| 20260507081508 | 10 | 332 | 1.6 | 8.0 | 0.00 | 0.03 | 0.00 | 1 | 1006.0 |
| 20260507080003 | 10 | 298 | 3.2 | 12.9 | 0.00 | 0.03 | 0.00 | 1 | 1006.5 |
| 20260507074600 | 11 | 294 | 4.8 | 12.9 | 0.00 | 0.03 | 0.00 | 1 | 1006.0 |
| 20260507073055 | 12 | 275 | 8.0 | 19.3 | 0.00 | 0.03 | 0.00 | 1 | 1005.7 |
| 20260507071549 | 13 | 317 | 1.6 | 9.7 | 0.00 | 0.03 | 0.00 | 1 | 1004.7 |
| 20260507070046 | 13 | 337 | 3.2 | 8.0 | 0.00 | 0.03 | 0.00 | 1 | 1004.8 |
| 20260507064541 | 13 | 15 | 1.6 | 9.7 | 0.00 | 0.03 | 0.00 | 1 | 1004.9 |
| 20260507063041 | 13 | 73 | 1.6 | 6.4 | 0.00 | 0.03 | 0.00 | 1 | 1004.9 |
| 20260507061532 | 13 | 314 | 0.0 | 6.4 | 0.00 | 0.03 | 0.00 | 1 | 1004.9 |
| 20260507060027 | 13 | 226 | 0.0 | 0.0 | 0.00 | 0.03 | 0.00 | 1 | 1004.9 |
| 20260507054522 | 13 | 226 | 0.0 | 0.0 | 0.00 | 0.03 | 0.00 | 1 | 1005.1 |
| 20260507053018 | 13 | 226 | 0.0 | 0.0 | 0.00 | 0.03 | 0.00 | 1 | 1005.4 |
| 20260507051514 | 13 | 226 | 0.0 | 1.6 | 0.00 | 0.03 | 0.00 | 1 | 1005.5 |
| 20260507050014 | 13 | 226 | 0.0 | 1.6 | 0.00 | 0.03 | 0.00 | 1 | 1005.6 |
| 20260507044505 | 13 | 226 | 0.0 | 1.6 | 0.00 | 0.03 | 0.00 | 1 | 1005.6 |
| 20260507043001 | 13 | 226 | 0.0 | 3.2 | 0.00 | 0.03 | 0.00 | 1 | 1005.6 |
| 20260507041601 | 13 | 226 | 0.0 | 1.6 | 0.00 | 0.03 | 0.00 | 1 | 1005.3 |
| 20260507040052 | 13 | 226 | 0.0 | 1.6 | 0.00 | 0.03 | 0.00 | 1 | 1005.5 |
| 20260507034551 | 13 | 223 | 0.0 | 3.2 | 0.00 | 0.03 | 0.03 | 1 | 1005.3 |
| 20260507033045 | 13 | 226 | 1.6 | 6.4 | 0.00 | 0.03 | 0.03 | 1 | 1005.8 |
| 20260507031545 | 13 | 212 | 1.6 | 4.8 | 0.00 | 0.03 | 0.03 | 1 | 1005.6 |
| 20260507030036 | 13 | 216 | 0.0 | 6.4 | 0.00 | 0.03 | 0.03 | 1 | 1005.6 |
| 20260507024531 | 13 | 137 | 1.6 | 6.4 | 0.00 | 0.03 | 0.03 | 1 | 1005.4 |
| 20260507023027 | 13 | 231 | 1.6 | 6.4 | 0.00 | 0.03 | 0.03 | 1 | 1005.7 |
| 20260507021523 | 13 | 161 | 3.2 | 8.0 | 0.00 | 0.03 | 0.03 | 1 | 1005.4 |
| 20260507020034 | 13 | 184 | 1.6 | 4.8 | 0.00 | 0.03 | 0.03 | 1 | 1005.6 |
| 20260507014513 | 13 | 180 | 1.6 | 4.8 | 0.00 | 0.03 | 0.03 | 1 | 1005.6 |
| 20260507013008 | 13 | 228 | 3.2 | 9.7 | 0.00 | 0.03 | 0.03 | 1 | 1005.7 |
| 20260507011509 | 13 | 226 | 1.6 | 6.4 | 0.00 | 0.03 | 0.03 | 1 | 1005.9 |
| 20260507010001 | 13 | 223 | 1.6 | 6.4 | 0.00 | 0.03 | 0.03 | 1 | 1006.1 |
| 20260507004556 | 13 | 224 | 1.6 | 11.3 | 0.00 | 0.03 | 0.03 | 1 | 1006.0 |
| 20260507003106 | 13 | 234 | 3.2 | 8.0 | 0.00 | 0.03 | 0.03 | 1 | 1005.9 |
| 20260507001609 | 13 | 223 | 1.6 | 6.4 | 0.00 | 0.03 | 0.03 | 1 | 1005.9 |
| 20260507000045 | 13 | 168 | 4.8 | 11.3 | 0.00 | 0.03 | 0.03 | 1 | 1006.0 |
| 20260506234540 | 13 | 178 | 3.2 | 11.3 | 0.00 | 0.03 | 0.03 | 1 | 1005.9 |
| 20260506233035 | 13 | 185 | 3.2 | 8.0 | 0.00 | 0.03 | 0.03 | 1 | 1005.9 |
| 20260506231530 | 13 | 205 | 3.2 | 8.0 | 0.00 | 0.03 | 0.03 | 1 | 1005.9 |
| 20260506230038 | 13 | 204 | 3.2 | 8.0 | 0.00 | 0.03 | 0.03 | 1 | 1006.0 |
| 20260506224522 | 13 | 169 | 1.6 | 9.7 | 0.00 | 0.03 | 0.03 | 1 | 1005.8 |
| 20260506223026 | 13 | 172 | 4.8 | 11.3 | 0.00 | 0.03 | 0.03 | 1 | 1005.9 |
| 20260506221513 | 13 | 165 | 6.4 | 14.5 | 0.00 | 0.03 | 0.03 | 1 | 1006.0 |
| 20260506220009 | 13 | 218 | 3.2 | 9.7 | 0.00 | 0.03 | 0.03 | 1 | 1006.3 |
| 20260506214504 | 13 | 208 | 4.8 | 12.9 | 0.00 | 0.03 | 0.03 | 1 | 1006.3 |
| 20260506213105 | 14 | 201 | 3.2 | 11.3 | 0.00 | 0.03 | 0.03 | 1 | 1006.4 |
| 20260506211556 | 14 | 153 | 3.2 | 14.5 | 0.00 | 0.03 | 0.03 | 1 | 1006.5 |
| 20260506210057 | 14 | 202 | 3.2 | 12.9 | 0.00 | 0.03 | 0.03 | 1 | 1006.5 |
| 20260506204550 | 15 | 162 | 4.8 | 11.3 | 0.00 | 0.03 | 0.03 | 1 | 1006.6 |
| 20260506203043 | 15 | 211 | 4.8 | 9.7 | 0.03 | 0.03 | 0.03 | 1 | 1006.8 |
| 20260506201538 | 15 | 221 | 3.2 | 11.3 | 0.03 | 0.03 | 0.03 | 1 | 1006.8 |
| 20260506200034 | 15 | 208 | 3.2 | 14.5 | 0.03 | 0.03 | 0.03 | 1 | 1006.9 |
| 20260506194529 | 16 | 219 | 3.2 | 8.0 | 0.00 | 0.00 | 0.00 | 1 | 1007.0 |
| 20260506193034 | 16 | 222 | 1.6 | 19.3 | 0.00 | 0.00 | 0.00 | 1 | 1007.2 |
| 20260506191521 | 17 | 202 | 3.2 | 9.7 | 0.00 | 0.00 | 0.00 | 10 | 1007.1 |
| 20260506190017 | 17 | 170 | 3.2 | 22.5 | 0.00 | 0.00 | 0.00 | 26 | 1007.1 |
| 20260506184511 | 17 | 159 | 6.4 | 17.7 | 0.00 | 0.00 | 0.00 | 30 | 1007.2 |
| 20260506183007 | 18 | 214 | 8.0 | 16.1 | 0.00 | 0.00 | 0.00 | 36 | 1007.4 |
| 20260506181503 | 18 | 159 | 8.0 | 19.3 | 0.00 | 0.00 | 0.00 | 39 | 1007.6 |
| 20260506180100 | 18 | 207 | 8.0 | 17.7 | 0.00 | 0.00 | 0.00 | 41 | 1007.6 |
| 20260506174554 | 19 | 190 | 6.4 | 22.5 | 0.00 | 0.00 | 0.00 | 44 | 1007.7 |
| 20260506173058 | 20 | 219 | 6.4 | 20.9 | 0.00 | 0.00 | 0.00 | 46 | 1008.2 |
| 20260506171546 | 19 | 160 | 6.4 | 14.5 | 0.00 | 0.00 | 0.00 | 45 | 1008.1 |
| 20260506170046 | 20 | 236 | 8.0 | 24.1 | 0.00 | 0.00 | 0.00 | 47 | 1007.9 |
| 20260506164551 | 20 | 229 | 6.4 | 20.9 | 0.00 | 0.00 | 0.00 | 43 | 1008.3 |
| 20260506163037 | 19 | 112 | 3.2 | 22.5 | 0.00 | 0.00 | 0.00 | 44 | 1008.4 |
| 20260506161529 | 19 | 225 | 6.4 | 12.9 | 0.00 | 0.00 | 0.00 | 42 | 1008.5 |
| 20260506160026 | 19 | 149 | 4.8 | 12.9 | 0.00 | 0.00 | 0.00 | 41 | 1008.8 |
| 20260506154520 | 19 | 196 | 8.0 | 16.1 | 0.00 | 0.00 | 0.00 | 42 | 1009.0 |
| 20260506153016 | 19 | 229 | 6.4 | 16.1 | 0.00 | 0.00 | 0.00 | 40 | 1009.2 |
| 20260506151514 | 19 | 167 | 4.8 | 12.9 | 0.00 | 0.00 | 0.00 | 38 | 1009.2 |
| 20260506150007 | 18 | 225 | 4.8 | 14.5 | 0.00 | 0.00 | 0.00 | 35 | 1009.3 |
| 20260506144502 | 18 | 159 | 4.8 | 12.9 | 0.00 | 0.00 | 0.00 | 30 | 1009.3 |